Probability
50 45 39 37 35 33 31 29 24 19 17 18 19 18 19 15 9 8 10 9 7 5 2 0 0 0 0 0 0 0 0 0 0 0 0 0 0 0 0 0 0 0 0
51 46 41 37 34 31 28 24 20 17 15 16 14 13 13 12 8 7 8 8 8 6 3 1 0 0 0 0 0 0 0 0 0 0 0 0 0 0 0 0 0 0 0
48 44 40 35 29 26 23 19 15 14 13 12 10 8 7 7 6 5 6 6 8 6 3 1 0 0 0 0 0 0 0 0 0 0 0 0 0 0 0 0 0 0 0
43 38 35 31 25 22 20 18 14 12 11 10 9 7 5 4 4 5 5 6 6 5 3 1 1 0 0 0 0 0 0 0 0 0 0 0 0 0 0 0 0 0 0
36 32 29 27 24 22 21 19 15 11 9 8 8 6 5 4 4 4 6 6 5 4 3 3 2 1 0 0 0 0 0 0 0 0 0 0 0 0 0 0 0 0 0
27 27 26 24 21 21 21 18 14 10 8 7 6 5 4 4 4 4 6 6 5 3 3 3 2 1 0 0 0 0 0 0 0 0 0 0 0 0 0 0 0 0 0
20 22 23 19 15 15 16 15 10 7 6 6 6 5 4 4 4 4 6 6 5 3 3 3 2 1 0 0 0 0 0 0 0 0 0 0 0 0 0 0 0 0 0
14 17 18 15 10 10 10 9 7 5 5 6 6 5 4 4 3 4 5 5 3 2 2 2 2 1 0 0 0 0 0 0 0 0 0 0 0 0 0 0 0 0 0
9 11 11 9 8 7 7 7 6 5 6 6 6 5 4 3 3 3 4 4 2 0 1 1 1 0 0 0 0 0 0 0 0 0 0 0 0 0 0 0 0 0 0
8 7 5 4 4 6 8 9 7 7 7 6 6 5 4 3 3 3 2 1 0 0 0 0 0 0 0 0 0 0 0 0 0 0 0 0 0 0 0 0 0 0 0
8 6 2 2 3 5 8 9 8 7 7 6 6 5 4 3 3 3 1 0 0 0 0 0 0 0 0 0 0 0 0 0 0 0 0 0 0 0 0 0 0 0 0
7 6 3 2 2 3 6 8 7 6 6 6 5 5 4 3 3 2 1 0 0 0 0 0 0 0 0 0 0 0 0 0 0 0 0 0 0 0 0 0 0 0 0
8 8 7 4 2 2 3 5 5 5 5 5 4 4 4 4 2 1 0 0 0 0 0 0 0 0 0 0 0 0 0 0 0 0 0 0 0 0 0 0 0 0 0
10 11 10 7 5 3 4 4 4 5 5 5 4 4 5 5 3 1 0 0 0 0 0 0 0 0 0 0 0 0 0 0 0 0 0 0 0 0 0 0 0 0 0
12 12 12 10 8 7 7 6 4 5 5 4 3 3 4 5 4 2 1 1 0 0 0 0 0 0 0 0 0 0 0 0 0 0 0 0 0 0 0 0 0 0 0
15 13 12 11 9 9 9 7 5 4 4 3 3 3 4 4 4 3 3 2 1 0 0 0 0 0 0 0 0 0 0 0 0 0 0 0 0 0 0 0 0 0 0
19 15 12 11 10 10 9 7 5 5 4 4 4 4 4 5 4 3 3 2 1 0 0 0 0 0 0 0 0 0 0 0 0 0 0 0 0 0 0 0 0 0 0
19 15 13 13 12 12 11 9 7 6 5 6 6 6 6 6 5 4 3 2 1 0 0 0 0 0 0 0 0 0 0 0 0 0 0 0 0 0 0 0 0 0 0
16 15 15 17 16 15 14 13 10 9 9 9 10 9 8 6 4 3 3 2 1 0 0 0 0 0 0 0 0 0 0 0 0 0 0 0 0 0 0 0 0 0 0
16 17 19 21 20 16 16 15 14 12 11 11 11 10 8 5 3 3 3 2 1 0 0 0 0 0 0 0 0 0 0 0 0 0 0 0 0 0 0 0 0 0 0
12 15 17 18 17 15 15 15 13 12 11 10 8 6 4 3 2 2 1 1 0 0 0 0 0 0 0 0 0 0 0 0 0 0 0 0 0 0 0 0 0 0 0
6 8 11 12 12 12 12 11 10 9 7 6 3 1 1 1 1 1 0 0 0 0 0 0 0 0 0 0 0 0 0 0 0 0 0 0 0 0 0 0 0 0 0
5 6 8 8 7 8 8 8 6 4 3 2 1 0 0 0 0 0 0 0 0 0 0 0 0 0 0 0 0 0 0 0 0 0 0 0 0 0 0 0 0 0 0
6 6 6 5 4 4 5 4 2 1 0 0 0 0 0 0 0 0 0 0 0 0 0 0 0 0 0 0 0 0 0 0 0 0 0 0 0 0 0 0 0 0 0
3 3 2 1 1 1 1 1 0 0 0 0 0 0 0 0 0 0 0 0 0 0 0 0 0 0 0 0 0 0 0 0 0 0 0 0 0 0 0 0 0 0 0
1 1 0 0 0 0 0 0 0 0 0 0 0 0 0 0 0 0 0 0 0 0 0 0 0 0 0 0 0 0 0 0 0 0 0 0 0 0 0 0 0 0 0
Wind_Speed
7 8 8 10 11 10 10 11 11 9 8 7 6 6 4 3 3 4 5 6 6 6 5 4 3 3 3 3 4 3 2 1 2 3 2 2 1 1 2 3 3 4 5
7 8 8 8 10 11 10 10 11 12 10 7 6 5 5 3 3 3 4 5 6 5 5 5 4 3 3 3 3 3 2 1 2 3 2 2 3 2 1 2 3 4 3
12 10 9 9 9 10 11 11 11 11 10 9 6 5 4 3 2 3 3 4 5 5 5 5 4 4 3 3 3 4 4 2 1 2 4 3 3 2 2 2 3 4 3
9 9 9 9 9 9 9 9 10 10 9 9 9 10 7 5 5 4 4 4 5 5 5 5 5 4 3 3 3 3 3 4 1 0 1 2 4 3 1 2 1 3 4
10 10 10 9 8 8 8 8 8 8 8 9 10 9 6 4 4 4 5 4 4 5 5 5 5 4 3 3 3 4 3 3 3 2 1 1 1 2 2 1 2 2 3
8 8 7 6 6 6 7 7 8 8 8 9 9 9 8 7 7 7 6 4 3 3 4 5 5 4 4 4 4 4 4 3 3 2 2 2 2 2 2 2 2 2 3
8 8 8 7 7 7 7 7 8 8 8 9 9 9 9 9 10 8 7 6 4 3 4 5 4 4 4 4 4 4 3 3 3 2 2 1 1 2 3 3 1 1 2
8 9 9 8 7 7 7 8 8 7 8 8 7 7 8 6 6 7 6 6 5 4 5 5 5 5 5 4 4 3 2 2 2 2 2 1 0 1 2 3 3 1 2
7 7 7 6 6 7 7 8 8 7 7 7 7 6 7 7 6 6 6 5 4 5 6 6 5 5 4 4 4 2 2 3 2 2 1 1 0 1 1 2 3 4 1
5 6 6 6 5 5 6 7 8 8 7 7 7 6 6 6 6 6 6 6 5 5 6 6 5 5 4 4 4 2 2 3 2 1 1 1 0 1 2 2 2 2 3
6 6 5 5 5 5 6 6 7 7 7 7 6 6 6 6 6 5 6 6 6 6 6 6 6 5 5 4 3 2 3 3 2 1 1 1 1 1 1 2 2 1 2
7 6 6 5 5 5 5 6 7 7 7 7 6 6 6 6 6 6 6 6 6 6 6 6 5 5 5 4 4 4 3 3 2 2 1 1 1 1 1 1 2 1 1
8 7 6 6 6 6 6 6 6 7 6 6 6 6 6 6 6 6 6 6 6 6 5 6 5 4 4 4 4 3 3 3 2 2 2 1 2 2 1 2 2 1 1
9 8 7 6 6 6 6 6 6 7 7 7 7 6 6 6 6 6 6 5 5 5 5 5 4 4 3 3 3 3 4 3 3 3 3 2 3 2 2 2 2 2 2
10 10 9 8 7 7 6 6 6 6 8 8 7 7 6 5 5 5 5 5 5 6 5 5 4 4 3 2 3 4 5 5 5 5 5 5 6 6 4 3 2 3 2
10 10 10 10 9 9 8 7 7 7 7 7 7 7 7 7 6 6 6 7 7 6 7 6 5 5 3 4 7 7 6 6 6 6 5 5 7 9 10 10 8 6 4
9 10 10 10 9 10 10 9 8 7 7 7 7 6 7 7 6 7 7 8 7 7 8 7 7 7 7 9 10 11 8 7 6 5 5 5 6 7 6 8 10 10 10
6 7 7 7 7 7 8 8 8 8 8 7 7 7 7 7 7 8 8 8 8 8 8 8 7 8 9 11 12 13 10 9 8 7 6 6 6 6 5 6 6 6 6
3 3 4 4 5 7 8 9 8 7 8 8 8 8 8 9 9 9 9 9 9 9 9 8 8 9 9 12 12 11 8 8 8 7 7 7 6 9 9 6 5 5 5
4 3 3 4 4 5 7 9 8 8 8 7 8 8 8 9 10 10 10 9 10 10 10 9 8 9 9 11 12 11 7 7 5 5 6 8 7 8 8 6 5 5 4
5 5 5 5 4 5 8 9 8 8 8 8 9 9 9 10 10 10 9 11 11 11 11 10 9 9 10 10 11 10 6 5 5 4 3 3 7 8 9 7 4 4 3
7 7 7 6 5 5 9 10 9 8 9 10 11 11 10 10 10 12 10 10 11 12 10 10 9 7 7 9 10 12 10 7 5 4 2 3 7 9 9 7 7 9 7
6 6 8 8 7 6 8 11 10 10 12 13 12 12 12 10 10 11 11 9 9 9 8 7 7 5 5 6 10 11 11 10 5 3 4 6 8 8 7 9 10 8 5
7 7 9 10 9 8 8 10 10 11 13 14 12 11 12 11 10 8 7 7 7 8 7 7 6 5 4 4 4 4 5 7 6 4 6 9 10 8 7 7 6 5 4
7 8 9 10 10 10 10 10 10 12 14 13 12 11 11 11 11 9 7 7 5 6 8 6 5 5 4 2 4 4 3 3 3 4 4 5 4 5 5 4 4 4 4
8 9 10 11 10 10 11 9 9 11 13 12 11 9 9 9 9 10 10 14 11 12 11 9 7 5 5 6 7 8 8 8 8 7 4 4 4 4 3 3 3 3 3
Wind_Direction
167 159 160 158 158 163 163 162 159 162 160 156 152 152 156 157 157 160 158 153 152 148 140 140 139 136 143 152 146 125 114 94 109 82 39 358 326 200 200 196 192 204 206
157 161 162 162 163 166 165 166 166 167 169 164 159 155 152 160 163 162 157 158 156 153 151 146 146 147 139 137 134 123 118 87 114 121 98 19 343 326 221 194 199 205 199
169 171 172 171 166 168 172 175 173 169 167 157 143 133 118 113 131 153 164 172 162 155 148 149 144 146 146 152 152 139 134 134 71 133 141 149 218 288 319 241 211 200 199
171 172 173 173 175 176 172 173 172 170 166 158 157 157 159 168 179 172 170 171 164 155 150 148 145 148 148 153 158 144 139 134 128 63 143 169 161 155 287 318 277 223 216
179 177 177 175 173 171 172 171 168 168 167 165 164 164 165 168 156 152 158 164 162 157 153 147 142 144 146 151 144 131 127 132 142 147 139 110 110 131 142 244 298 295 250
176 173 166 157 160 163 165 165 167 171 170 169 167 167 167 163 156 161 165 167 162 158 160 148 142 143 143 149 145 137 133 131 130 132 132 146 158 187 160 185 233 252 269
165 162 162 162 163 163 164 163 167 171 171 170 172 172 172 168 169 170 169 165 163 165 174 154 150 146 150 153 142 131 135 142 138 145 148 151 182 184 159 150 190 248 293
170 168 169 165 165 167 168 165 169 170 169 170 171 169 167 165 170 171 166 168 171 173 169 159 156 155 154 152 140 131 148 149 150 144 139 141 153 139 153 156 146 95 333
169 163 160 160 165 167 172 171 167 166 167 165 159 159 162 164 167 166 163 162 163 168 164 158 153 154 154 151 143 143 157 150 157 151 138 149 145 99 117 134 145 145 162
149 151 155 156 158 158 160 165 167 168 166 160 161 160 160 164 163 159 160 160 165 159 154 157 156 155 156 153 146 144 154 149 162 160 136 130 123 75 71 88 106 137 156
147 150 156 150 145 142 148 152 156 154 155 157 155 152 157 158 154 158 162 158 156 153 158 161 160 162 161 156 152 164 156 162 173 166 152 192 152 96 68 76 84 95 135
150 145 148 143 142 145 150 155 157 154 156 155 149 150 149 149 148 152 153 148 146 155 160 157 160 168 168 167 169 185 178 175 184 196 165 209 127 90 67 77 74 73 126
148 144 146 151 155 155 155 155 157 155 152 148 147 146 145 147 148 150 150 149 148 148 148 146 154 160 162 167 173 177 179 172 170 170 154 157 119 100 78 76 68 47 51
156 156 158 157 156 159 160 158 159 157 156 152 149 151 152 153 152 150 147 146 143 137 132 126 125 127 128 142 156 145 134 122 105 94 92 85 101 109 99 77 58 60 55
165 166 166 165 162 159 160 160 159 160 159 156 158 158 154 148 144 144 139 133 126 122 114 107 99 93 95 113 133 128 122 114 99 83 73 72 81 79 78 81 70 69 63
171 171 168 169 171 171 169 164 161 160 155 158 162 160 153 149 150 143 128 116 107 103 99 97 94 79 67 83 103 109 106 104 102 92 76 67 61 68 67 68 65 68 74
171 173 174 174 177 175 171 169 168 160 156 158 157 154 153 150 145 137 122 115 111 104 97 91 86 78 63 76 91 97 100 96 92 90 82 73 57 52 58 58 55 50 50
164 171 170 170 173 169 164 158 156 157 155 156 155 150 143 135 126 120 118 113 108 105 99 92 86 80 68 74 86 94 91 86 79 79 81 79 57 50 61 66 57 45 35
119 139 158 162 162 163 159 150 150 151 149 151 149 147 143 136 128 124 120 115 110 102 95 90 85 82 71 70 81 91 92 87 78 74 74 77 69 55 62 68 60 42 21
84 102 127 128 142 156 147 140 142 140 140 140 135 131 130 127 124 122 117 110 108 105 99 87 79 81 75 72 79 86 95 93 85 72 64 65 66 57 60 67 63 47 10
80 81 98 117 128 135 129 127 128 131 129 121 114 111 112 113 114 111 110 111 108 103 98 90 79 72 70 68 72 79 91 101 96 81 58 41 51 56 58 65 66 52 38
72 79 88 86 85 106 122 122 123 122 114 109 105 102 101 106 107 106 106 108 111 108 103 96 83 66 61 64 66 68 74 84 92 82 53 40 55 59 57 57 51 48 48
82 86 96 89 77 82 114 117 116 114 110 104 100 97 93 94 101 107 109 107 106 109 107 99 93 76 59 55 62 68 70 71 78 74 70 68 64 60 55 52 52 49 47
87 91 95 92 84 78 91 103 109 111 110 106 101 98 96 91 84 85 92 102 107 110 110 107 104 92 68 52 46 52 57 56 58 56 60 63 62 61 54 46 43 45 48
85 89 94 95 91 90 90 93 103 108 104 101 99 96 95 96 87 77 67 82 82 115 121 119 120 115 95 61 71 78 62 56 67 73 60 53 51 50 43 37 32 31 31
94 92 90 91 90 90 89 89 98 108 110 107 105 104 102 99 99 99 80 57 73 85 95 106 109 91 101 97 74 67 71 79 87 81 71 65 64 63 54 44 28 22 22